Location: Milano
(45.4670°N, 9.2000°E)
Time: 20:03:49
(UTC+02:00)

ISS - Pass Details

Date: 17 May 2021
Orbit: 417 x 422 km, 51.6° (Epoch: 14 June)

Event Time Altitude Azimuth Distance (km) Brightness Sun altitude
Rises 22:01:53 0° 241° (WSW) 2,354 0.3 -11.0°
Reaches altitude 10° 22:03:58 10° 242° (WSW) 1,494 -0.7 -11.3°
Maximum altitude 22:07:19 86° 329° (NNW) 425 -3.7 -11.7°
Drops below altitude 10° 22:10:42 10° 61° (ENE) 1,504 -1.1 -12.2°
Sets 22:12:49 0° 62° (ENE) 2,372 -0.1 -12.4°
